www.pogodaiklimat.ru

Погода и климат >> Архив погоды >> Австралия >> Южная Австралия >> Таркула


ПОГОДА в Таркуле

  • Прогноз погоды в Таркуле
  • Монитор погоды в Таркуле

АРХИВ ПОГОДЫ в Таркуле

Время (UTC), дата Ветер
(напр.,м/с)
 
Видим.   Явления Облачность Т
(С)
Тd
(С)
f
(%)
Тe
(С)
Тes
(С)
Комфортность P
(гПа)
Po
(гПа)
Тmin
(С)
Tmax
(С)
R
(мм)
R24
(мм)
S
(см)
10 15.01 ЮВ 2 н/о н/о +41.5 +2.3 9 +38 +38 очень
жарко
1003.9 990.0
11 15.01 ЮВ 3 н/о н/о +39.6 +2.3 10 +36 +36 очень
жарко
1004.3 990.4
13 15.01 Ю 6 н/о н/о +38.6 +0.1 9 +35 +35 очень
жарко
1005.8 991.9
14 15.01 Ю 5 н/о н/о +37.3 -0.9 9 +33 +33 жарко 1005.6 991.7
16 15.01 штиль 0 н/о н/о +34.8 0.0 11 +31 +31 жарко 1004.9 991.0
17 15.01 Ю 2 н/о н/о +32.3 +0.4 13 +29 +29 жарко 1004.6 990.7
19 15.01 В 2 н/о н/о +32.0 -0.9 12 +29 +29 жарко 1005.1 991.2
20 15.01 В 2 н/о н/о +31.0 -0.6 13 +28 +28 жарко 1005.4 991.5
22 15.01 СВ 3 н/о н/о +36.3 +1.2 11 +33 +33 жарко 1006.8 992.9
23 15.01 С 4 н/о н/о +39.7 +3.7 11 +37 +37 очень
жарко
1007.1 993.2
01 16.01 С 7 н/о н/о +44.7 +4.6 9 +42 +42 опасность
перегрева
1006.4 992.5
02 16.01 С 9 н/о н/о +46.9 +4.5 8 +44 +44 опасность
перегрева
1005.8 991.9
04 16.01 С 9 н/о н/о +47.8 +3.3 7 +45 +45 опасность
перегрева
1004.0 990.1
05 16.01 С 9 н/о н/о +47.0 +2.7 7 +44 +44 опасность
перегрева
1003.4 989.5
07 16.01 Ю 7 н/о н/о +42.3 +4.3 10 +39 +39 очень
жарко
1002.6 988.7
08 16.01 СЗ 2 н/о н/о +41.4 +7.4 13 +39 +39 очень
жарко
1002.2 988.3
10 16.01 ЮЗ 7 н/о н/о +37.2 +9.7 19 +36 +36 очень
жарко
1004.2 990.3
11 16.01 Ю 4 н/о н/о +35.8 +10.1 21 +35 +35 очень
жарко
1004.8 990.9
13 16.01 ЮЗ 5 н/о н/о +32.1 +9.6 25 +31 +31 жарко 1006.2 992.3
14 16.01 ЮЗ 7 н/о н/о +30.7 +10.1 28 +30 +30 жарко 1006.7 992.8
16 16.01 ЮЗ 5 н/о н/о +25.7 +13.2 46 +28 +28 жарко 1006.5 992.6
17 16.01 ЮЗ 4 н/о н/о +25.6 +12.8 45 +27 +27 жарко 1006.5 992.6
19 16.01 Ю 3 н/о н/о +25.0 +11.9 44 +27 +27 жарко 1006.3 992.4
20 16.01 ЮВ 4 н/о н/о +26.9 +10.2 35 +27 +27 жарко 1006.1 992.2
22 16.01 ЮВ 5 н/о н/о +31.8 +8.7 24 +31 +31 жарко 1007.3 993.4
23 16.01 В 6 н/о н/о +35.0 +8.7 20 +33 +33 жарко 1007.4 993.5
01 17.01 В 3 н/о н/о +38.7 +7.4 15 +36 +36 очень
жарко
1006.9 993.0
02 17.01 С 4 н/о н/о +40.2 +6.5 13 +38 +38 очень
жарко
1006.3 992.4
04 17.01 С 7 н/о н/о +42.5 +5.9 11 +40 +40 очень
жарко
1004.5 990.6
05 17.01 СЗ 6 н/о н/о +43.8 +5.5 10 +41 +41 опасность
перегрева
1003.6 989.7
07 17.01 Ю 9 н/о н/о +39.6 +9.1 16 +38 +38 очень
жарко
1003.2 989.3
08 17.01 Ю 9 н/о н/о +38.8 +8.5 16 +37 +37 очень
жарко
1003.3 989.4
10 17.01 Ю 7 н/о н/о +36.0 +8.7 19 +34 +34 очень
жарко
1004.5 990.6
11 17.01 Ю 5 н/о н/о +35.0 +10.1 22 +34 +34 очень
жарко
1004.9 991.0
13 17.01 Ю 5 н/о н/о +33.6 +10.2 24 +33 +33 жарко 1005.4 991.5
14 17.01 Ю 5 н/о н/о +33.0 +10.4 25 +32 +32 жарко 1005.9 992.0
16 17.01 ЮЗ 6 н/о н/о +31.3 +11.1 29 +31 +31 жарко 1006.0 992.1
17 17.01 Ю 5 н/о н/о +28.8 +13.5 39 +30 +30 жарко 1005.3 991.4
19 17.01 ЮЗ 4 н/о н/о +25.3 +17.0 60 +29 +29 душно 1008.0 994.1
20 17.01 ЮЗ 4 н/о н/о +23.6 +18.0 71 +28 +28 душно 1008.8 994.9
22 17.01 ЮЗ 5 н/о н/о +21.7 +18.5 82 +26 +26 душно 1011.2 997.2
23 17.01 ЮЗ 9 н/о н/о +20.4 +17.8 85 +23 +23 комфорт 1011.7 997.7
01 18.01 Ю 5 н/о н/о +21.1 +19.0 88 +25 +25 комфорт 1010.3 996.3
02 18.01 ЮЗ 4 н/о н/о +24.0 +19.7 77 +29 +29 душно 1009.9 995.9
04 18.01 Ю 4 н/о н/о +29.8 +17.9 49 +34 +34 очень
душно
1010.7 996.7
05 18.01 Ю 4 н/о н/о +31.9 +17.4 42 +36 +36 очень
душно
1011.0 997.0
07 18.01 Ю 6 н/о н/о +33.3 +15.8 35 +36 +36 очень
душно
1011.0 997.0
08 18.01 ЮЗ 7 н/о н/о +32.3 +14.4 34 +34 +34 душно 1011.4 997.4
10 18.01 Ю 7 н/о н/о +31.1 +12.0 31 +32 +32 жарко 1012.3 998.3
11 18.01 ЮЗ 10 н/о н/о +28.1 +10.3 33 +29 +29 жарко 1012.8 998.8
13 18.01 Ю 6 н/о н/о +25.4 +7.1 31 +25 +25 комфорт 1015.6 1001.6
14 18.01 Ю 6 н/о н/о +24.6 +7.3 33 +25 +25 комфорт 1016.0 1002.0
16 18.01 Ю 5 н/о н/о +24.0 +7.2 34 +24 +24 комфорт 1016.2 1002.1
17 18.01 Ю 7 н/о н/о +23.2 +3.7 28 +23 +23 комфорт 1015.8 1001.8
19 18.01 Ю 5 н/о н/о +21.6 +10.1 48 +23 +23 комфорт 1016.6 1002.5
20 18.01 Ю 4 н/о н/о +21.0 +10.8 52 +23 +23 комфорт 1017.0 1002.9
22 18.01 Ю 6 н/о н/о +21.0 +13.4 62 +24 +24 комфорт 1018.6 1004.5
23 18.01 ЮВ 6 н/о н/о +22.4 +13.2 56 +25 +25 комфорт 1019.7 1005.6
01 19.01 ЮВ 6 н/о н/о +28.2 +11.7 36 +29 +29 жарко 1019.0 1004.9
02 19.01 Ю 6 н/о н/о +29.9 +10.5 30 +30 +30 жарко 1018.7 1004.6
04 19.01 ЮВ 8 н/о н/о +33.8 +7.7 20 +32 +32 жарко 1017.0 1002.9
05 19.01 Ю 7 н/о н/о +35.2 +7.3 18 +33 +33 жарко 1016.0 1002.0
07 19.01 Ю 8 н/о н/о +34.7 +3.3 14 +32 +32 жарко 1015.3 1001.3
08 19.01 ЮВ 8 н/о н/о +34.7 +3.3 14 +32 +32 жарко 1015.2 1001.2
10 19.01 Ю 9 н/о н/о +30.9 +5.3 20 +29 +29 жарко 1016.9 1002.8
11 19.01 Ю 7 н/о н/о +29.5 +6.2 23 +28 +28 жарко 1017.8 1003.7
13 19.01 Ю 5 н/о н/о +27.3 +8.7 31 +27 +27 жарко 1018.5 1004.4
14 19.01 ЮВ 6 н/о н/о +27.1 +8.0 30 +27 +27 жарко 1018.2 1004.1
16 19.01 Ю 3 н/о н/о +25.4 +8.0 33 +26 +26 жарко 1017.1 1003.0
17 19.01 Ю 4 н/о н/о +24.8 +8.7 36 +25 +25 комфорт 1016.8 1002.7
19 19.01 ЮВ 4 н/о н/о +24.3 +6.6 32 +24 +24 комфорт 1016.8 1002.7
20 19.01 ЮВ 4 н/о н/о +23.8 +7.4 35 +24 +24 комфорт 1016.8 1002.7
22 19.01 ЮВ 5 н/о н/о +24.3 +9.5 39 +25 +25 комфорт 1017.7 1003.6
23 19.01 ЮВ 5 н/о н/о +25.2 +9.1 36 +26 +26 жарко 1018.0 1003.9
01 20.01 ЮВ 4 н/о н/о +30.1 +7.3 24 +29 +29 жарко 1017.7 1003.6
02 20.01 ЮВ 3 н/о н/о +31.9 +6.9 21 +30 +30 жарко 1017.4 1003.3
04 20.01 ЮЗ 4 н/о н/о +36.5 +6.6 16 +34 +34 очень
жарко
1016.2 1002.1
05 20.01 ЮЗ 6 н/о н/о +37.8 +8.6 17 +36 +36 очень
жарко
1015.3 1001.3
07 20.01 ЮЗ 6 н/о н/о +35.8 +9.3 20 +34 +34 очень
жарко
1014.4 1000.4
08 20.01 ЮЗ 7 н/о н/о +35.4 +9.7 21 +34 +34 очень
жарко
1014.1 1000.1
10 20.01 Ю 7 н/о н/о +31.9 +10.0 26 +31 +31 жарко 1015.0 1001.0
11 20.01 Ю 6 н/о н/о +30.2 +8.6 26 +30 +30 жарко 1015.7 1001.7
13 20.01 ЮЗ 4 н/о н/о +27.8 +7.6 28 +27 +27 жарко 1016.2 1002.1
14 20.01 ЮЗ 4 н/о н/о +26.5 +7.5 30 +26 +26 жарко 1015.8 1001.8
16 20.01 ЮЗ 3 н/о н/о +24.8 +7.0 32 +25 +25 комфорт 1014.4 1000.4
17 20.01 Ю 2 н/о н/о +24.7 +7.4 33 +25 +25 комфорт 1013.4 999.4
19 20.01 ЮЗ 2 н/о н/о +24.4 +8.4 36 +25 +25 комфорт 1012.8 998.8
20 20.01 ЮЗ 3 н/о н/о +23.9 +8.3 37 +24 +24 комфорт 1013.0 999.0
22 20.01 Ю 3 н/о н/о +26.9 +8.4 31 +27 +27 жарко 1013.7 999.7
23 20.01 ЮВ 3 н/о н/о +28.8 +7.4 26 +28 +28 жарко 1013.9 999.9
01 21.01 В 4 н/о н/о +32.6 +6.7 20 +31 +31 жарко 1014.4 1000.4
02 21.01 В 3 н/о н/о +35.6 +5.9 16 +33 +33 жарко 1013.7 999.7
04 21.01 ЮЗ 3 н/о н/о +37.9 +6.8 15 +35 +35 очень
жарко
1012.6 998.6
05 21.01 Ю 3 н/о н/о +39.2 +6.8 14 +37 +37 очень
жарко
1011.7 997.7
07 21.01 ЮЗ 7 н/о н/о +39.5 +9.0 16 +38 +38 очень
жарко
1010.5 996.5
08 21.01 ЮЗ 7 н/о н/о +38.6 +9.2 17 +37 +37 очень
жарко
1010.3 996.3
10 21.01 Ю 4 н/о н/о +35.6 +9.2 20 +34 +34 очень
жарко
1011.1 997.1
11 21.01 Ю 3 н/о н/о +33.9 +9.9 23 +33 +33 жарко 1011.6 997.6
13 21.01 Ю 2 н/о н/о +30.4 +9.3 27 +30 +30 жарко 1011.5 997.5
14 21.01 ЮВ 1 н/о н/о +29.4 +9.0 28 +29 +29 жарко 1011.2 997.2
16 21.01 В 2 н/о н/о +29.7 +9.3 28 +29 +29 жарко 1009.8 995.8
17 21.01 ЮВ 4 н/о н/о +31.3 +8.9 25 +30 +30 жарко 1009.4 995.4
19 21.01 В 3 н/о н/о +30.0 +7.8 25 +29 +29 жарко 1009.4 995.4
20 21.01 В 5 н/о н/о +29.7 +7.6 25 +29 +29 жарко 1009.4 995.4
22 21.01 С 3 н/о н/о +30.9 +7.4 23 +30 +30 жарко 1011.9 997.9
23 21.01 СВ 4 н/о н/о +31.8 +8.7 24 +31 +31 жарко 1011.8 997.8
01 22.01 СВ 5 н/о н/о +39.5 +7.1 14 +37 +37 очень
жарко
1010.7 996.7
02 22.01 С 8 н/о н/о +42.0 +6.7 12 +39 +39 очень
жарко
1009.9 995.9
04 22.01 С 7 н/о н/о +43.2 +6.4 11 +41 +41 опасность
перегрева
1008.4 994.5
05 22.01 С 4 н/о н/о +40.7 +4.5 11 +38 +38 очень
жарко
1008.0 994.1
07 22.01 СВ 1 н/о н/о +41.7 +5.3 11 +39 +39 очень
жарко
1007.0 993.1
08 22.01 В 3 н/о н/о +41.8 +4.0 10 +39 +39 очень
жарко
1006.5 992.6

 

Местоположение метеостанции Таркула (Южная Австралия, Австралия): широта -30.72 долгота 134.58 высота над уровнем моря 124 м.

В архиве по умолчанию представлена погода в Таркуле за последнюю неделю. Архивные данные за месяц целиком и за предыдущие месяцы, начиная с января 2011 года, Вы можете получить, выбрав интересующий диапазон дат из раскрывающегося списка и нажав кнопку "Ввод!".


*Определитесь, кто Вы:
робот инопланетянин человек

Внимание! Время в таблицах - всемирное. Для получения местного времени необходимо прибавить поправку, которая равна 9.5 ч.

Смотрите также архив погоды в соседних городах и на ближайших метеорологических станциях:

Погода в Сидуне (Южная Австралия, Австралия) (178 км)
Погода в Кубер-Педи (Южная Австралия, Австралия) (188 км)
Погода на Аэродроме Вумера (Южная Австралия, Австралия) (218 км)
Погода в Олимпик Дэм (Южная Австралия, Австралия) (222 км)
Погода в Миннипа Пирса (Южная Австралия, Австралия) (243 км)
Погода в Уудинне (Южная Австралия, Австралия) (272 км)
Погода в Марри (Южная Австралия, Австралия) (355 км)
Погода в Порт Огаста (Южная Австралия, Австралия) (358 км)
Погода в Наллаборе (Южная Австралия, Австралия) (360 км)
Погода в Однадатте (Южная Австралия, Австралия) (363 км)

Пояснения к столбцам:

Ветер - указаны скорость ветра в м/с - средняя за 10 мин, порывы в срок и между сроками (в фигурных скобках) и направление, откуда дует ветер: С - северный, СВ - северо-восточный, В - восточный, ЮВ - юго-восточный, Ю - южный, ЮЗ - юго-западный, З - западный, СЗ - северо-западный.
Видимость - горизонтальная дальность видимости в метрах или километрах. При видимости от 1 до 10 км при отсутствии осадков обычно наблюдается дымка, при ухудшении видимости до 1 км и менее - туман. В сухую погоду видимость может ухудшаться дымом, пылью или мглою.
Явления - указаны атмосферные явления, наблюдавшиеся в срок или в последний час перед сроком; фигурными скобками обозначены явления, наблюдавшиеся между сроками (за 1-3 часа до срока); квадратными скобками обозначены град или гололедные отложения с указанием их диаметра в мм.
Облачность - указаны через наклонную черту общая и нижняя облачность в баллах и высота нижней границы облаков в метрах; квадратными скобками обозначены формы облаков: Ci - перистые, Cs - перисто-слоистые, Cc - перисто-кучевые, Ac - высококучевые, As - высокослоистые, Sc - слоисто-кучевые, Ns - слоисто-дождевые, Cu - кучевые, Cb - кучево-дождевые. Подробнее классификацию облаков см. в Атласе облаков (PDF).
T - Температура воздуха - температура, измеренная на высоте 2 м над землей.
Td - Температура точки росы - температура, при понижении до которой содержащийся в воздухе водяной пар достигнет насыщения.
f - Относительная влажность воздуха - влажноcть воздуха, измеренная на высоте 2 м над землей.
Te - Эффективная температура - температура, которую ощущает одетый по сезону человек в тени. Характеристика душности погоды. При расчете учитывается влияние влажности воздуха и скорости ветра на теплоощущения человека.
Tes - Эффективная температура на солнце - температура, которую ощущает человек, с поправкой на солнечный нагрев. Характеристика знойности погоды. Зависит от высоты солнца над горизонтом, облачности и скорости ветра. Ночью, в пасмурную погоду, а также при ветре 12 м/с и более поправка равна нулю.
P - Атмосферное давление - приведенное к уровню моря атмосферное давление.
Po - Атмосферное давление - измеренное на уровне метеостанции атмосферное давление.
Tmin - Минимальная температура - минимум температуры воздуха на высоте 2 м над землей.
Tmax - Максимальная температура - максимум температуры воздуха на высоте 2 м над землей.
R - Количество осадков - Количество выпавших осадков за период времени, мм. При наведении курсора мыши на число - период времени, за который выпало указанное количество осадков.
R24 - Количество осадков - Количество выпавших осадков за 24 часа, мм.
S - Снежный покров - Высота снежного покрова, см. При наведении курсора мыши на число - состояние снежного покрова и степень покрытия местности в баллах.